StationID,Date,MaxTemp,MinTemp,Precipitation,Snowfall,SnowDepth
"UKM00003414","1973-01-01",50.00,,,,
"UKM00003414","1973-01-02",51.80,37.40,0.00,,
"UKM00003414","1973-01-03",53.60,46.40,0.00,,
"UKM00003414","1973-01-04",51.80,46.40,0.00,,
"UKM00003414","1973-01-05",,,0.00,,
"UKM00003414","1973-01-06",,33.80,0.00,,
"UKM00003414","1973-01-07",42.80,37.40,0.00,,
"UKM00003414","1973-01-08",,,0.00,,
"UKM00003414","1973-01-09",39.20,32.00,0.00,,
"UKM00003414","1973-01-10",41.00,37.40,0.00,,
"UKM00003414","1973-01-11",39.20,37.40,0.00,,
"UKM00003414","1973-01-12",37.40,,0.00,,
"UKM00003414","1973-01-13",,,0.00,,
"UKM00003414","1973-01-14",48.20,33.80,30.00,,
"UKM00003414","1973-01-15",44.60,,5.00,,
"UKM00003414","1973-01-16",42.80,,20.00,,
"UKM00003414","1973-01-17",30.20,23.00,0.00,,
"UKM00003414","1973-01-18",33.80,24.80,0.00,,
"UKM00003414","1973-01-19",37.40,,,,
"UKM00003414","1973-01-20",35.60,,56.00,,71.00
"UKM00003414","1973-01-21",37.40,32.00,10.00,,20.00
"UKM00003414","1973-01-22",42.80,32.00,0.00,,20.00
"UKM00003414","1973-01-23",51.80,37.40,,,
"UKM00003414","1973-01-24",53.60,,0.00,,
"UKM00003414","1973-01-25",,41.00,0.00,,
"UKM00003414","1973-01-26",48.20,42.80,30.00,,
"UKM00003414","1973-01-27",48.20,,0.00,,
"UKM00003414","1973-01-28",51.80,37.40,5.00,,
"UKM00003414","1973-01-29",50.00,,5.00,,
"UKM00003414","1973-01-30",48.20,,0.00,,
"UKM00003414","1973-01-31",42.80,26.60,0.00,,
"UKM00003414","1973-02-01",48.20,39.20,10.00,,
"UKM00003414","1973-02-02",48.20,42.80,15.00,,
"UKM00003414","1973-02-03",48.20,44.60,5.00,,
"UKM00003414","1973-02-04",46.40,,0.00,,
"UKM00003414","1973-02-05",46.40,30.20,3.00,,
"UKM00003414","1973-02-06",50.00,41.00,0.00,,
"UKM00003414","1973-02-07",50.00,46.40,0.00,,
"UKM00003414","1973-02-08",48.20,,30.00,,
"UKM00003414","1973-02-09",44.60,33.80,23.00,,
"UKM00003414","1973-02-10",44.60,33.80,51.00,,
"UKM00003414","1973-02-11",48.20,35.60,8.00,,
"UKM00003414","1973-02-12",,,79.00,,
"UKM00003414","1973-02-13",39.20,,3.00,,
"UKM00003414","1973-02-14",37.40,,10.00,,30.00
"UKM00003414","1973-02-15",33.80,14.00,0.00,,10.00
"UKM00003414","1973-02-16",42.80,,3.00,,
"UKM00003414","1973-02-17",42.80,21.20,0.00,,
"UKM00003414","1973-02-18",44.60,28.40,0.00,,
"UKM00003414","1973-02-19",51.80,37.40,0.00,,
"UKM00003414","1973-02-20",51.80,,0.00,,
"UKM00003414","1973-02-21",50.00,,,,
"UKM00003414","1973-02-22",46.40,,,,
"UKM00003414","1973-02-23",42.80,,43.00,,
"UKM00003414","1973-02-25",39.20,30.20,0.00,,
"UKM00003414","1973-02-26",42.80,26.60,0.00,,
"UKM00003414","1973-02-27",44.60,23.00,0.00,,
"UKM00003414","1973-02-28",48.20,,5.00,,
"UKM00003414","1973-03-01",48.20,,41.00,,
"UKM00003414","1973-03-02",50.00,28.40,0.00,,
"UKM00003414","1973-03-03",51.80,44.60,10.00,,
"UKM00003414","1973-03-04",53.60,,8.00,,
"UKM00003414","1973-03-05",,,61.00,,
"UKM00003414","1973-03-06",44.60,33.80,41.00,,
"UKM00003414","1973-03-07",,30.20,,,
"UKM00003414","1973-03-08",51.80,24.80,0.00,,
"UKM00003414","1973-03-09",51.80,24.80,0.00,,
"UKM00003414","1973-03-10",48.20,26.60,0.00,,
"UKM00003414","1973-03-11",48.20,23.00,0.00,,
"UKM00003414","1973-03-12",48.20,24.80,0.00,,
"UKM00003414","1973-03-13",,30.20,0.00,,
"UKM00003414","1973-03-14",42.80,26.60,0.00,,
"UKM00003414","1973-03-15",44.60,,0.00,,
"UKM00003414","1973-03-16",46.40,,0.00,,
"UKM00003414","1973-03-17",50.00,37.40,0.00,,
"UKM00003414","1973-03-18",50.00,42.80,0.00,,
"UKM00003414","1973-03-19",55.40,37.40,0.00,,
"UKM00003414","1973-03-20",50.00,26.60,0.00,,
"UKM00003414","1973-03-21",55.40,24.80,0.00,,
"UKM00003414","1973-03-22",62.60,26.60,0.00,,
"UKM00003414","1973-03-23",62.60,28.40,0.00,,
"UKM00003414","1973-03-24",53.60,39.20,5.00,,
"UKM00003414","1973-03-25",50.00,37.40,0.00,,
"UKM00003414","1973-03-26",51.80,28.40,0.00,,
"UKM00003414","1973-03-27",53.60,26.60,0.00,,
"UKM00003414","1973-03-28",51.80,35.60,25.00,,
"UKM00003414","1973-03-29",55.40,32.00,0.00,,
"UKM00003414","1973-03-30",51.80,,5.00,,
"UKM00003414","1973-03-31",48.20,28.40,0.00,,
"UKM00003414","1973-04-01",50.00,,,,
"UKM00003414","1973-04-02",,,180.00,,
"UKM00003414","1973-04-03",50.00,30.20,,,
"UKM00003414","1973-04-04",55.40,39.20,10.00,,
"UKM00003414","1973-04-05",51.80,,3.00,,
"UKM00003414","1973-04-06",50.00,39.20,10.00,,
"UKM00003414","1973-04-07",50.00,,61.00,,
"UKM00003414","1973-04-08",42.80,32.00,76.00,,
"UKM00003414","1973-04-09",44.60,23.00,0.00,,
"UKM00003414","1973-04-10",50.00,26.60,0.00,,
"UKM00003414","1973-04-11",44.60,,,,
"UKM00003414","1973-04-12",50.00,37.40,0.00,,
"UKM00003414","1973-04-13",51.80,,3.00,,
"UKM00003414","1973-04-14",51.80,32.00,5.00,,
"UKM00003414","1973-04-15",53.60,33.80,0.00,,
"UKM00003414","1973-04-16",55.40,41.00,0.00,,
"UKM00003414","1973-04-17",53.60,39.20,0.00,,
"UKM00003414","1973-04-18",55.40,41.00,0.00,,
"UKM00003414","1973-04-19",48.20,39.20,3.00,,
"UKM00003414","1973-04-20",50.00,37.40,51.00,,
"UKM00003414","1973-04-21",48.20,,71.00,,
"UKM00003414","1973-04-22",48.20,33.80,10.00,,
"UKM00003414","1973-04-23",48.20,37.40,,,
"UKM00003414","1973-04-24",57.20,,,,
"UKM00003414","1973-04-25",59.00,37.40,0.00,,
"UKM00003414","1973-04-26",60.80,33.80,0.00,,
"UKM00003414","1973-04-27",57.20,30.20,0.00,,
"UKM00003414","1973-04-28",51.80,33.80,0.00,,
"UKM00003414","1973-04-29",50.00,30.20,0.00,,
"UKM00003414","1973-04-30",50.00,41.00,99.00,,
"UKM00003414","1973-05-01",55.40,35.60,0.00,,
"UKM00003414","1973-05-02",57.20,26.60,0.00,,
"UKM00003414","1973-05-03",48.20,41.00,30.00,,
"UKM00003414","1973-05-04",59.00,46.40,99.00,,
"UKM00003414","1973-05-05",57.20,44.60,10.00,,
"UKM00003414","1973-05-06",57.20,,71.00,,
"UKM00003414","1973-05-07",55.40,35.60,5.00,,
"UKM00003414","1973-05-08",53.60,44.60,13.00,,
"UKM00003414","1973-05-09",55.40,,,,
"UKM00003414","1973-05-10",55.40,39.20,23.00,,
"UKM00003414","1973-05-11",55.40,35.60,13.00,,
"UKM00003414","1973-05-12",53.60,37.40,0.00,,
"UKM00003414","1973-05-13",53.60,,20.00,,
"UKM00003414","1973-05-14",55.40,37.40,0.00,,
"UKM00003414","1973-05-15",59.00,32.00,0.00,,
"UKM00003414","1973-05-16",60.80,37.40,0.00,,
"UKM00003414","1973-05-17",62.60,42.80,0.00,,
"UKM00003414","1973-05-18",62.60,48.20,0.00,,
"UKM00003414","1973-05-19",66.20,39.20,0.00,,
"UKM00003414","1973-05-20",64.40,48.20,81.00,,
"UKM00003414","1973-05-21",62.60,50.00,79.00,,
"UKM00003414","1973-05-22",66.20,48.20,,,
"UKM00003414","1973-05-23",55.40,50.00,43.00,,
"UKM00003414","1973-05-24",66.20,48.20,3.00,,
"UKM00003414","1973-05-25",64.40,41.00,0.00,,
"UKM00003414","1973-05-26",73.40,46.40,0.00,,
"UKM00003414","1973-05-27",73.40,51.80,0.00,,
"UKM00003414","1973-05-28",66.20,55.40,99.00,,
"UKM00003414","1973-05-29",64.40,53.60,30.00,,
"UKM00003414","1973-05-30",64.40,51.80,41.00,,
"UKM00003414","1973-05-31",53.60,,0.00,,
"UKM00003414","1973-06-01",59.00,35.60,0.00,,
"UKM00003414","1973-06-02",57.20,33.80,5.00,,
"UKM00003414","1973-06-03",60.80,39.20,3.00,,
"UKM00003414","1973-06-04",60.80,41.00,0.00,,
"UKM00003414","1973-06-05",66.20,35.60,0.00,,
"UKM00003414","1973-06-06",69.80,41.00,0.00,,
"UKM00003414","1973-06-07",73.40,50.00,0.00,,
"UKM00003414","1973-06-08",73.40,,0.00,,
"UKM00003414","1973-06-09",66.20,51.80,0.00,,
"UKM00003414","1973-06-10",60.80,53.60,3.00,,
"UKM00003414","1973-06-11",66.20,,0.00,,
"UKM00003414","1973-06-12",66.20,48.20,0.00,,
"UKM00003414","1973-06-13",62.60,,0.00,,
"UKM00003414","1973-06-14",69.80,35.60,0.00,,
"UKM00003414","1973-06-15",73.40,41.00,0.00,,
"UKM00003414","1973-06-16",75.20,42.80,0.00,,
"UKM00003414","1973-06-17",69.80,,0.00,,
"UKM00003414","1973-06-18",73.40,48.20,0.00,,
"UKM00003414","1973-06-19",,,61.00,,
"UKM00003414","1973-06-20",55.40,51.80,30.00,,
"UKM00003414","1973-06-21",75.20,53.60,3.00,,
"UKM00003414","1973-06-22",73.40,53.60,0.00,,
"UKM00003414","1973-06-23",69.80,,0.00,,
"UKM00003414","1973-06-24",64.40,51.80,119.00,,
"UKM00003414","1973-06-25",69.80,53.60,10.00,,
"UKM00003414","1973-06-26",62.60,51.80,41.00,,
"UKM00003414","1973-06-27",69.80,51.80,10.00,,
"UKM00003414","1973-06-28",71.60,53.60,20.00,,
"UKM00003414","1973-06-29",66.20,50.00,0.00,,
"UKM00003414","1973-06-30",71.60,51.80,0.00,,
"UKM00003414","1973-07-01",73.40,46.40,0.00,,
"UKM00003414","1973-07-02",69.80,,0.00,,
"UKM00003414","1973-07-03",69.80,46.40,0.00,,
"UKM00003414","1973-07-04",73.40,,0.00,,
"UKM00003414","1973-07-05",78.80,48.20,0.00,,
"UKM00003414","1973-07-06",64.40,,51.00,,
"UKM00003414","1973-07-07",64.40,,10.00,,
"UKM00003414","1973-07-08",66.20,39.20,0.00,,
"UKM00003414","1973-07-09",69.80,44.60,0.00,,
"UKM00003414","1973-07-10",69.80,53.60,10.00,,
"UKM00003414","1973-07-11",68.00,59.00,0.00,,
"UKM00003414","1973-07-12",68.00,,0.00,,
"UKM00003414","1973-07-13",69.80,,0.00,,
"UKM00003414","1973-07-14",62.60,,30.00,,
"UKM00003414","1973-07-15",64.40,55.40,53.00,,
"UKM00003414","1973-07-16",66.20,55.40,391.00,,
"UKM00003414","1973-07-17",66.20,53.60,150.00,,
"UKM00003414","1973-07-18",64.40,50.00,0.00,,
"UKM00003414","1973-07-19",68.00,53.60,41.00,,
"UKM00003414","1973-07-20",62.60,,33.00,,
"UKM00003414","1973-07-21",62.60,50.00,152.00,,
"UKM00003414","1973-07-22",60.80,50.00,15.00,,
"UKM00003414","1973-07-23",59.00,50.00,41.00,,
"UKM00003414","1973-07-24",62.60,46.40,0.00,,
"UKM00003414","1973-07-25",68.00,51.80,0.00,,
"UKM00003414","1973-07-26",62.60,48.20,0.00,,
"UKM00003414","1973-07-27",64.40,46.40,0.00,,
"UKM00003414","1973-07-28",68.00,46.40,0.00,,
"UKM00003414","1973-07-29",75.20,48.20,5.00,,
"UKM00003414","1973-07-30",73.40,,150.00,,
"UKM00003414","1973-07-31",75.20,,,,
"UKM00003414","1973-08-01",77.00,51.80,0.00,,
"UKM00003414","1973-08-02",69.80,51.80,20.00,,
"UKM00003414","1973-08-03",68.00,,3.00,,
"UKM00003414","1973-08-04",,46.40,20.00,,
"UKM00003414","1973-08-05",66.20,53.60,71.00,,
"UKM00003414","1973-08-06",64.40,,521.00,,
"UKM00003414","1973-08-07",62.60,50.00,13.00,,
"UKM00003414","1973-08-08",62.60,44.60,3.00,,
"UKM00003414","1973-08-09",68.00,53.60,5.00,,
"UKM00003414","1973-08-10",69.80,46.40,0.00,,
"UKM00003414","1973-08-11",66.20,,,,
"UKM00003414","1973-08-12",75.20,48.20,0.00,,
"UKM00003414","1973-08-13",78.80,55.40,0.00,,
"UKM00003414","1973-08-14",,51.80,,,
"UKM00003414","1973-08-15",82.40,50.00,0.00,,
"UKM00003414","1973-08-16",82.40,50.00,0.00,,
"UKM00003414","1973-08-17",,,10.00,,
"UKM00003414","1973-08-18",69.80,39.20,0.00,,
"UKM00003414","1973-08-19",71.60,,,,
"UKM00003414","1973-08-20",71.60,,10.00,,
"UKM00003414","1973-08-21",57.20,53.60,20.00,,
"UKM00003414","1973-08-22",69.80,53.60,0.00,,
"UKM00003414","1973-08-23",75.20,50.00,0.00,,
"UKM00003414","1973-08-24",77.00,48.20,0.00,,
"UKM00003414","1973-08-25",,51.80,0.00,,
"UKM00003414","1973-08-26",69.80,53.60,0.00,,
"UKM00003414","1973-08-27",68.00,51.80,10.00,,
"UKM00003414","1973-08-28",68.00,53.60,0.00,,
"UKM00003414","1973-08-29",62.60,48.20,20.00,,
"UKM00003414","1973-08-30",62.60,46.40,13.00,,
"UKM00003414","1973-08-31",66.20,50.00,5.00,,
"UKM00003414","1973-09-01",68.00,,3.00,,
"UKM00003414","1973-09-02",64.40,39.20,10.00,,
"UKM00003414","1973-09-03",73.40,57.20,119.00,,
"UKM00003414","1973-09-04",75.20,,,,
"UKM00003414","1973-09-05",68.00,55.40,0.00,,
"UKM00003414","1973-09-06",71.60,59.00,0.00,,
"UKM00003414","1973-09-07",71.60,55.40,0.00,,
"UKM00003414","1973-09-08",,51.80,,,
"UKM00003414","1973-09-09",75.20,50.00,0.00,,
"UKM00003414","1973-09-10",62.60,51.80,0.00,,
"UKM00003414","1973-09-11",66.20,50.00,0.00,,
"UKM00003414","1973-09-12",68.00,41.00,0.00,,
"UKM00003414","1973-09-13",64.40,44.60,0.00,,
"UKM00003414","1973-09-14",68.00,51.80,0.00,,
"UKM00003414","1973-09-15",68.00,51.80,51.00,,
"UKM00003414","1973-09-16",73.40,55.40,0.00,,
"UKM00003414","1973-09-17",62.60,,64.00,,
"UKM00003414","1973-09-18",62.60,42.80,119.00,,
"UKM00003414","1973-09-19",62.60,,33.00,,
"UKM00003414","1973-09-20",62.60,42.80,0.00,,
"UKM00003414","1973-09-21",57.20,,23.00,,
"UKM00003414","1973-09-22",55.40,39.20,30.00,,
"UKM00003414","1973-09-23",59.00,46.40,41.00,,
"UKM00003414","1973-09-24",59.00,44.60,5.00,,
"UKM00003414","1973-09-25",59.00,50.00,8.00,,
"UKM00003414","1973-09-26",57.20,,33.00,,
"UKM00003414","1973-09-27",53.60,37.40,30.00,,
"UKM00003414","1973-09-28",55.40,,33.00,,
"UKM00003414","1973-09-29",55.40,39.20,5.00,,
"UKM00003414","1973-09-30",55.40,,20.00,,
"UKM00003414","1973-10-01",55.40,32.00,0.00,,
"UKM00003414","1973-10-02",64.40,50.00,5.00,,
"UKM00003414","1973-10-03",60.80,,0.00,,
"UKM00003414","1973-10-04",60.80,,0.00,,
"UKM00003414","1973-10-05",62.60,44.60,0.00,,
"UKM00003414","1973-10-06",64.40,50.00,5.00,,
"UKM00003414","1973-10-07",62.60,51.80,3.00,,
"UKM00003414","1973-10-08",62.60,48.20,0.00,,
"UKM00003414","1973-10-09",59.00,,81.00,,
"UKM00003414","1973-10-10",57.20,,140.00,,
"UKM00003414","1973-10-11",51.80,,,,
"UKM00003414","1973-10-12",51.80,28.40,0.00,,
"UKM00003414","1973-10-13",48.20,42.80,3.00,,
"UKM00003414","1973-10-14",48.20,41.00,41.00,,
"UKM00003414","1973-10-15",46.40,44.60,61.00,,
"UKM00003414","1973-10-16",48.20,,5.00,,
"UKM00003414","1973-10-17",46.40,33.80,0.00,,
"UKM00003414","1973-10-18",51.80,32.00,61.00,,
"UKM00003414","1973-10-19",55.40,,119.00,,
"UKM00003414","1973-10-20",57.20,37.40,0.00,,
"UKM00003414","1973-10-21",53.60,,61.00,,
"UKM00003414","1973-10-22",57.20,35.60,33.00,,
"UKM00003414","1973-10-23",53.60,37.40,0.00,,
"UKM00003414","1973-10-24",57.20,,,,
"UKM00003414","1973-10-25",55.40,37.40,0.00,,
"UKM00003414","1973-10-26",53.60,32.00,0.00,,
"UKM00003414","1973-10-27",55.40,,0.00,,
"UKM00003414","1973-10-28",51.80,28.40,0.00,,
"UKM00003414","1973-10-29",51.80,30.20,0.00,,
"UKM00003414","1973-10-30",51.80,28.40,0.00,,
"UKM00003414","1973-10-31",51.80,35.60,0.00,,
"UKM00003414","1973-11-01",53.60,,0.00,,
"UKM00003414","1973-11-02",55.40,42.80,20.00,,
"UKM00003414","1973-11-03",55.40,,0.00,,
"UKM00003414","1973-11-04",60.80,50.00,30.00,,
"UKM00003414","1973-11-05",,,61.00,,
"UKM00003414","1973-11-06",48.20,33.80,41.00,,
"UKM00003414","1973-11-07",51.80,35.60,0.00,,
"UKM00003414","1973-11-08",59.00,51.80,0.00,,
"UKM00003414","1973-11-09",55.40,51.80,0.00,,
"UKM00003414","1973-11-10",57.20,,30.00,,
"UKM00003414","1973-11-11",48.20,,10.00,,
"UKM00003414","1973-11-12",53.60,33.80,3.00,,
"UKM00003414","1973-11-13",50.00,,23.00,,
"UKM00003414","1973-11-14",,,5.00,,
"UKM00003414","1973-11-15",,,20.00,,
"UKM00003414","1973-11-16",44.60,,5.00,,
"UKM00003414","1973-11-17",42.80,26.60,0.00,,
"UKM00003414","1973-11-18",,32.00,0.00,,
"UKM00003414","1973-11-19",,,10.00,,
"UKM00003414","1973-11-20",46.40,23.00,0.00,,
"UKM00003414","1973-11-21",42.80,21.20,0.00,,
"UKM00003414","1973-11-22",48.20,28.40,0.00,,
"UKM00003414","1973-11-23",53.60,41.00,0.00,,
"UKM00003414","1973-11-24",55.40,,0.00,,
"UKM00003414","1973-11-25",,33.80,5.00,,
"UKM00003414","1973-11-26",37.40,24.80,0.00,,
"UKM00003414","1973-11-27",39.20,,10.00,,
"UKM00003414","1973-11-28",,26.60,71.00,,
"UKM00003414","1973-11-29",39.20,,51.00,,
"UKM00003414","1973-11-30",33.80,,5.00,,
"UKM00003414","1973-12-01",37.40,19.40,0.00,,
"UKM00003414","1973-12-02",,23.00,0.00,,
"UKM00003414","1973-12-03",50.00,33.80,0.00,,
"UKM00003414","1973-12-04",53.60,46.40,0.00,,
"UKM00003414","1973-12-05",50.00,46.40,0.00,,
"UKM00003414","1973-12-06",,,0.00,,
"UKM00003414","1973-12-07",53.60,37.40,51.00,,
"UKM00003414","1973-12-08",41.00,,43.00,,
"UKM00003414","1973-12-09",41.00,21.20,0.00,,
"UKM00003414","1973-12-10",,32.00,0.00,,
"UKM00003414","1973-12-11",,,71.00,,
"UKM00003414","1973-12-12",,32.00,10.00,,
"UKM00003414","1973-12-13",50.00,42.80,10.00,,
"UKM00003414","1973-12-14",44.60,,15.00,,
"UKM00003414","1973-12-15",,,0.00,,
"UKM00003414","1973-12-16",50.00,,23.00,,
"UKM00003414","1973-12-17",41.00,32.00,0.00,,
"UKM00003414","1973-12-18",44.60,28.40,0.00,,
"UKM00003414","1973-12-19",42.80,37.40,0.00,,
"UKM00003414","1973-12-20",48.20,41.00,41.00,,
"UKM00003414","1973-12-21",48.20,,3.00,,
"UKM00003414","1973-12-22",44.60,,23.00,,
"UKM00003414","1973-12-23",44.60,35.60,5.00,,
"UKM00003414","1973-12-24",41.00,35.60,3.00,,
"UKM00003414","1973-12-25",,,0.00,,
"UKM00003414","1973-12-26",53.60,37.40,10.00,,
"UKM00003414","1973-12-27",50.00,44.60,0.00,,
"UKM00003414","1973-12-28",51.80,46.40,20.00,,
"UKM00003414","1973-12-29",51.80,48.20,0.00,,
"UKM00003414","1973-12-30",,,30.00,,
"UKM00003414","1973-12-31",39.20,,0.00,,
"UKM00003414","1974-01-01",33.80,19.40,0.00,,
"UKM00003414","1974-01-02",33.80,26.60,0.00,,
"UKM00003414","1974-01-03",,33.80,0.00,,
"UKM00003414","1974-01-04",50.00,37.40,5.00,,
"UKM00003414","1974-01-05",51.80,,13.00,,
"UKM00003414","1974-01-06",48.20,,99.00,,
"UKM00003414","1974-01-07",48.20,,,,
"UKM00003414","1974-01-08",44.60,32.00,109.00,,
"UKM00003414","1974-01-09",42.80,30.20,0.00,,
"UKM00003414","1974-01-10",53.60,26.60,20.00,,
"UKM00003414","1974-01-11",48.20,,23.00,,
"UKM00003414","1974-01-12",51.80,42.80,23.00,,
"UKM00003414","1974-01-13",46.40,,51.00,,
"UKM00003414","1974-01-14",53.60,,5.00,,
"UKM00003414","1974-01-15",55.40,,30.00,,
"UKM00003414","1974-01-16",50.00,35.60,79.00,,
"UKM00003414","1974-01-17",50.00,37.40,10.00,,
"UKM00003414","1974-01-18",51.80,48.20,0.00,,
"UKM00003414","1974-01-19",50.00,,0.00,,
"UKM00003414","1974-01-20",46.40,,0.00,,
"UKM00003414","1974-01-21",44.60,,0.00,,
"UKM00003414","1974-01-22",,,0.00,,
"UKM00003414","1974-01-23",50.00,41.00,5.00,,
"UKM00003414","1974-01-24",48.20,,0.00,,
"UKM00003414","1974-01-25",50.00,37.40,3.00,,
"UKM00003414","1974-01-26",48.20,41.00,41.00,,
"UKM00003414","1974-01-27",,,3.00,,
"UKM00003414","1974-01-28",48.20,,86.00,,
"UKM00003414","1974-01-29",,30.20,0.00,,
"UKM00003414","1974-01-30",48.20,41.00,10.00,,
"UKM00003414","1974-01-31",48.20,35.60,5.00,,
"UKM00003414","1974-02-01",51.80,42.80,10.00,,
"UKM00003414","1974-02-02",46.40,,15.00,,
"UKM00003414","1974-02-03",46.40,,0.00,,
"UKM00003414","1974-02-04",46.40,30.20,20.00,,
"UKM00003414","1974-02-05",42.80,26.60,30.00,,
"UKM00003414","1974-02-06",39.20,28.40,36.00,,
"UKM00003414","1974-02-07",42.80,,0.00,,
"UKM00003414","1974-02-08",51.80,28.40,41.00,,
"UKM00003414","1974-02-09",,,56.00,,
"UKM00003414","1974-02-10",51.80,42.80,30.00,,
"UKM00003414","1974-02-11",53.60,,180.00,,
"UKM00003414","1974-02-12",46.40,35.60,3.00,,
"UKM00003414","1974-02-13",48.20,,10.00,,
"UKM00003414","1974-02-14",,28.40,20.00,,
"UKM00003414","1974-02-15",50.00,41.00,23.00,,
"UKM00003414","1974-02-16",48.20,44.60,5.00,,
"UKM00003414","1974-02-17",48.20,,0.00,,
"UKM00003414","1974-02-18",48.20,41.00,20.00,,
"UKM00003414","1974-02-19",44.60,37.40,0.00,,
"UKM00003414","1974-02-20",48.20,35.60,0.00,,
"UKM00003414","1974-02-21",51.80,42.80,0.00,,
"UKM00003414","1974-02-22",48.20,,20.00,,
"UKM00003414","1974-02-23",48.20,35.60,0.00,,
"UKM00003414","1974-02-24",50.00,28.40,0.00,,
"UKM00003414","1974-02-25",48.20,30.20,0.00,,
"UKM00003414","1974-02-26",48.20,42.80,0.00,,
"UKM00003414","1974-02-28",37.40,32.00,0.00,,
"UKM00003414","1974-03-01",42.80,33.80,51.00,,
"UKM00003414","1974-03-02",44.60,28.40,20.00,,
"UKM00003414","1974-03-03",44.60,28.40,0.00,,
"UKM00003414","1974-03-04",42.80,,10.00,,
"UKM00003414","1974-03-05",42.80,28.40,5.00,,
"UKM00003414","1974-03-06",42.80,21.20,10.00,,
"UKM00003414","1974-03-07",50.00,41.00,20.00,,
"UKM00003414","1974-03-08",,,0.00,,
"UKM00003414","1974-03-09",,35.60,,,
"UKM00003414","1974-03-10",39.20,33.80,71.00,,
"UKM00003414","1974-03-11",39.20,33.80,15.00,,
"UKM00003414","1974-03-12",41.00,35.60,30.00,,
"UKM00003414","1974-03-13",42.80,,3.00,,
"UKM00003414","1974-03-14",48.20,30.20,10.00,,
"UKM00003414","1974-03-15",53.60,41.00,89.00,,
"UKM00003414","1974-03-16",53.60,44.60,3.00,,
"UKM00003414","1974-03-17",50.00,41.00,0.00,,
"UKM00003414","1974-03-18",51.80,35.60,51.00,,
"UKM00003414","1974-03-19",48.20,37.40,25.00,,
"UKM00003414","1974-03-20",53.60,32.00,3.00,,
"UKM00003414","1974-03-21",53.60,26.60,0.00,,
"UKM00003414","1974-03-22",48.20,30.20,0.00,,
"UKM00003414","1974-03-23",55.40,41.00,0.00,,
"UKM00003414","1974-03-24",,,5.00,,
"UKM00003414","1974-03-25",51.80,41.00,23.00,,
"UKM00003414","1974-03-26",50.00,41.00,0.00,,
"UKM00003414","1974-03-27",46.40,41.00,0.00,,
"UKM00003414","1974-03-28",53.60,37.40,0.00,,
"UKM00003414","1974-03-29",55.40,35.60,0.00,,
"UKM00003414","1974-03-30",62.60,32.00,0.00,,
"UKM00003414","1974-03-31",59.00,35.60,0.00,,
"UKM00003414","1974-04-01",55.40,32.00,0.00,,
"UKM00003414","1974-04-02",73.40,41.00,0.00,,
"UKM00003414","1974-04-03",60.80,33.80,0.00,,
"UKM00003414","1974-04-04",64.40,37.40,0.00,,
"UKM00003414","1974-04-05",59.00,33.80,0.00,,
"UKM00003414","1974-04-06",59.00,33.80,0.00,,
"UKM00003414","1974-04-07",62.60,33.80,0.00,,
"UKM00003414","1974-04-08",60.80,30.20,0.00,,
"UKM00003414","1974-04-09",60.80,39.20,0.00,,
"UKM00003414","1974-04-10",62.60,37.40,0.00,,
"UKM00003414","1974-04-11",,,51.00,,
"UKM00003414","1974-04-12",48.20,42.80,46.00,,
"UKM00003414","1974-04-13",44.60,39.20,0.00,,
"UKM00003414","1974-04-14",53.60,28.40,0.00,,
"UKM00003414","1974-04-15",60.80,28.40,0.00,,
"UKM00003414","1974-04-16",60.80,37.40,0.00,,
"UKM00003414","1974-04-17",48.20,39.20,0.00,,
"UKM00003414","1974-04-18",48.20,41.00,0.00,,
"UKM00003414","1974-04-19",48.20,41.00,0.00,,
"UKM00003414","1974-04-20",50.00,41.00,0.00,,
"UKM00003414","1974-04-21",53.60,41.00,0.00,,
"UKM00003414","1974-04-22",51.80,35.60,0.00,,
"UKM00003414","1974-04-23",55.40,33.80,0.00,,
"UKM00003414","1974-04-24",53.60,32.00,0.00,,
"UKM00003414","1974-04-25",50.00,,0.00,,
"UKM00003414","1974-04-26",51.80,32.00,3.00,,
"UKM00003414","1974-04-27",50.00,30.20,0.00,,
"UKM00003414","1974-04-28",50.00,37.40,20.00,,
"UKM00003414","1974-04-29",57.20,37.40,3.00,,
"UKM00003414","1974-04-30",59.00,32.00,0.00,,
"UKM00003414","1974-05-01",51.80,39.20,0.00,,
"UKM00003414","1974-05-02",53.60,39.20,41.00,,
"UKM00003414","1974-05-03",51.80,41.00,30.00,,
"UKM00003414","1974-05-04",55.40,,0.00,,
"UKM00003414","1974-05-05",51.80,41.00,0.00,,
"UKM00003414","1974-05-06",53.60,35.60,0.00,,
"UKM00003414","1974-05-07",57.20,30.20,0.00,,
"UKM00003414","1974-05-08",59.00,30.20,0.00,,
"UKM00003414","1974-05-09",59.00,44.60,3.00,,
"UKM00003414","1974-05-10",59.00,46.40,30.00,,
"UKM00003414","1974-05-11",59.00,44.60,5.00,,
"UKM00003414","1974-05-12",57.20,42.80,3.00,,
"UKM00003414","1974-05-13",60.80,,,,
"UKM00003414","1974-05-14",62.60,39.20,0.00,,
"UKM00003414","1974-05-15",69.80,37.40,0.00,,
"UKM00003414","1974-05-16",66.20,50.00,0.00,,
"UKM00003414","1974-05-17",69.80,50.00,5.00,,
"UKM00003414","1974-05-18",62.60,44.60,20.00,,
"UKM00003414","1974-05-19",68.00,41.00,0.00,,
"UKM00003414","1974-05-20",64.40,48.20,0.00,,
"UKM00003414","1974-05-21",59.00,46.40,20.00,,
"UKM00003414","1974-05-22",59.00,42.80,0.00,,
"UKM00003414","1974-05-23",59.00,44.60,33.00,,
"UKM00003414","1974-05-24",60.80,42.80,66.00,,
"UKM00003414","1974-05-25",55.40,,0.00,,
"UKM00003414","1974-05-26",62.60,37.40,0.00,,
"UKM00003414","1974-05-27",59.00,,0.00,,
"UKM00003414","1974-05-28",59.00,42.80,0.00,,
"UKM00003414","1974-05-29",59.00,,0.00,,
"UKM00003414","1974-05-30",64.40,30.20,0.00,,
"UKM00003414","1974-05-31",64.40,41.00,0.00,,
"UKM00003414","1974-06-01",66.20,42.80,0.00,,
"UKM00003414","1974-06-02",64.40,,,,
"UKM00003414","1974-06-03",62.60,,0.00,,
"UKM00003414","1974-06-04",64.40,37.40,0.00,,
"UKM00003414","1974-06-05",60.80,37.40,20.00,,
"UKM00003414","1974-06-06",55.40,42.80,51.00,,
"UKM00003414","1974-06-07",60.80,41.00,0.00,,
"UKM00003414","1974-06-08",55.40,,53.00,,
"UKM00003414","1974-06-09",57.20,37.40,10.00,,
"UKM00003414","1974-06-10",55.40,41.00,51.00,,
"UKM00003414","1974-06-11",62.60,48.20,0.00,,
"UKM00003414","1974-06-12",64.40,,3.00,,